Regional Weather Roundup
Issued by NWS New Orleans/Baton Rouge, LA

Home | Current Version | Previous Version | Text Only | Print | Product List | Glossary Off
Versions: 1 2 3 4 5 6 7 8 9 10 11 12 13 14 15 16 17 18 19 20 21 22 23 24 25 26 27 28 29 30 31 32 33 34 35 36 37 38 39 40 41 42 43 44 45 46 47 48 49 50

564
ASUS44 KLIX 192201
RWRLIX
NEW ORLEANS REGIONAL WEATHER ROUNDUP
NATIONAL WEATHER SERVICE NEW ORLEANS LA
500 PM CDT SAT APR 19 2014

NOTE: "FAIR" INDICATES FEW OR NO CLOUDS BELOW 12,000 FEET WITH NO
      SIGNIFICANT WEATHER AND/OR OBSTRUCTIONS TO VISIBILITY.
      SKY/WX - SKY CONDITION AND SIGNIFICANT WEATHER.
      TMP - AIR TEMPERATURE.     DP    - DEWPOINT TEMPERATURE.
      RH  - RELATIVE HUMIDITY.   PRES  - PRESSURE.
      HI  - HEAT INDEX.          WCI   - WIND CHILL INDEX.

*  THESE STATIONS ARE NOT NWS OR FAA STATIONS AND ARE NOT UNDER
   NWS QUALITY CONTROL.

LAZ038-040-048-061>063-065>067-069-192300-
SOUTHEAST LOUISIANA

CITY           SKY/WX    TMP DP  RH WIND       PRES   REMARKS
N.O. AUDUBON   NOT AVBL
N.O. INTL ARPT MOSUNNY   77  53  43 NW12      30.08F
N.O. LAKEFRONT SUNNY     72  59  63 W10       30.08F
N.O. DOWNTOWN*   N/A     79  48  34 NW7       30.08F
SLIDELL        SUNNY     79  50  36 N12G17    30.06F
BATON ROUGE    SUNNY     80  51  36 NW7       30.08F
BOOTHVILLE     SUNNY     73  53  49 NW13      30.08F
BELLE CHASSE   MOSUNNY   78  50  37 VRB6      30.07F
BOGALUSA*        N/A     80  49  33 N14       30.09S
GALLIANO*      NOT AVBL
NEW ROADS*     NOT AVBL
GONZALES*        N/A     78  52  39 NW10      30.08S
HAMMOND*       NOT AVBL
HOUMA*         NOT AVBL
PORT FOURCHON* CLEAR     72  55  56 VRB6      30.11S

$$

MSZ070-080>082-192300-
SOUTHERN MISSISSIPPI

CITY           SKY/WX    TMP DP  RH WIND       PRES   REMARKS
MCCOMB         MOSUNNY   78  49  35 N8        30.09F
GULFPORT       SUNNY     82  49  31 N14       30.04S
BILOXI         NOT AVBL
PASCAGOULA     SUNNY     78  51  38 N10G18    30.03F

$$

COASTAL OBSERVATIONS
LAKE AND NEARSHORE STATIONS

STATION/POSITION TIME  TEMP    WIND        PRES    WAVE
                       AIR SEA DIR/SP/G            HT/PER
                 (UTC) (F)     (DEG/KT/KT) (MB)    (FT/S)
PASCAGOULA       2100   78     330/ 10/ 15 1016.3
WAVELAND YACHT   2100   74 70  340/ 12/ 15 1017.0
GRAND ISLE       2100   71 67  300/  2/  4 1019.5
SOUTHWEST PASS   2100   76 59  310/  6/  7 1019.3
NEW CANAL        2100   74 66  270/  4/  6 1019.1
SHELL BEACH      2100   72 65  310/  9/  9 1018.3

OFFSHORE STATIONS

STATION/POSITION TIME  TEMP    WIND        PRES    WAVE
                       AIR SEA DIR/SP/G            HT/PER
                 (UTC) (F)     (DEG/KT/KT) (MB)    (FT/S)
64 S DAUPHIN ISL 2138   66 71  290/ 14/ 17 1017.9

$$




USA.gov is the U.S. government's official web portal to all federal, state and local government web resources and services.